This demonstration page uses our WeatherBlox Daily Observations layout. Learn more.

39.92423, -83.80882

Hourly Observations for June 21, 2016

Temp ( °F °C ) Dew Point ( °F °C ) Humidity (%) Winds ( mph kmh ) Pressure ( in mb ) Visibility ( mi km ) Precip ( " mm )
12:56 am 00:56 Clear 75 23.8 69 20.5 82 82 WSW 10 17 30.02 1017 10 16.0934 0 0
1:56 am 01:56 Clear 73 22.7 70 21.1 91 91 WSW 10 17 30.01 1016 10 16.0934 0 0
2:56 am 02:56 Mostly Clear 73 22.7 71 21.6 94 94 WSW 9 15 30 1016 10 16.0934 0 0
3:56 am 03:56 Clear 73 22.7 71 21.6 94 94 WSW 6 9 29.97 1015 10 16.0934 0 0
4:56 am 04:56 Clear 71 21.6 71 21.6 100 100 W 6 9 29.96 1015 10 16.0934 0 0
5:56 am 05:56 Mostly Cloudy 72 22.2 72 22.2 100 100 W 6 9 29.97 1015 10 16.0934 0 0
6:17 am 06:17 Cloudy 72 22 72 22 100 100 W 6 9 29.97 1015 10 16.0934 0 0
6:56 am 06:56 Cloudy 73 22.7 72 22.2 97 97 W 5 7 29.98 1015 10 16.0934 0 0
7:56 am 07:56 Cloudy 73 22.7 72 22.2 97 97 W 5 7 29.97 1015 10 16.0934 0 0
8:09 am 08:09 Cloudy 73 23 72 22 94 94 W 6 9 29.97 1015 10 16.0934 0 0
8:56 am 08:56 Cloudy 74 23.3 72 22.2 94 94 W 8 13 29.97 1015 10 16.0934 0 0
9:08 am 09:08 Cloudy 73 23 72 22 94 94 WNW 10 17 29.97 1015 10 16.0934 0 0
9:27 am 09:27 Cloudy 73 23 72 22 94 94 WNW 6 9 29.97 1015 10 16.0934 0 0
9:46 am 09:46 Cloudy 73 23 72 22 94 94 WNW 6 9 29.97 1015 10 16.0934 0 0
9:56 am 09:56 Cloudy 74 23.3 72 22.2 94 94 WNW 6 9 29.97 1015 10 16.0934 0 0
10:07 am 10:07 Cloudy 75 24 72 22 89 89 WNW 7 11 29.97 1015 10 16.0934 0 0
10:56 am 10:56 Mostly Sunny 78 25.5 71 21.6 79 79 W 7 11 29.96 1015 10 16.0934 0 0
11:10 am 11:10 Mostly Cloudy 79 26 72 22 79 79 W 9 15 29.94 1014 10 16.0934 0 0
11:56 am 11:56 Mostly Cloudy 81 27.2 71 21.6 72 72 W 14 22 29.97 1015 10 16.0934 0 0
12:56 pm 12:56 Mostly Sunny 83 28.3 66 18.8 56 56 W 14 22 29.96 1015 10 16.0934 0 0
1:56 pm 13:56 Sunny 85 29.4 59 15 42 42 W 17 28 29.95 1014 10 16.0934 0 0
2:56 pm 14:56 Sunny 86 30 58 14.4 39 39 W 16 26 29.92 1013 8 12.87472 0 0
3:56 pm 15:56 Sunny 87 30.5 57 13.8 36 36 W 17 28 29.92 1013 10 16.0934 0 0
4:56 pm 16:56 Sunny 86 30 56 13.3 36 36 W 17 28 29.91 1013 10 16.0934 0 0
5:56 pm 17:56 Sunny 85 29.4 57 13.8 38 38 W 17 28 29.9 1013 10 16.0934 0 0
6:56 pm 18:56 Sunny 83 28.3 56 13.3 40 40 W 14 22 29.9 1012 10 16.0934 0 0
7:56 pm 19:56 Sunny 82 27.7 56 13.3 41 41 W 13 20 29.91 1013 10 16.0934 0 0
8:56 pm 20:56 Sunny 77 25 57 13.8 50 50 W 7 11 29.92 1013 10 16.0934 0 0
9:56 pm 21:56 Clear 72 22.2 58 14.4 61 61 W 6 9 29.94 1014 10 16.0934 0 0
10:56 pm 22:56 Clear 71 21.6 58 14.4 64 64 SW 5 7 29.96 1015 10 16.0934 0 0
11:56 pm 23:56 Clear 66 18.8 59 15 79 79 WSW 5 7 29.96 1015 10 16.0934 0 0

Powered by AerisWeather